Location: Unspecified
(50.7693°N, 0.0000°E)
Time: 03:42:13
(UTC+00:00)

SR - Pass Details

Date: 04 July 2019
Orbit: 580 x 876 km, 66.7° (Epoch: 19 July)

Event Time Altitude Azimuth Distance (km) Brightness Sun altitude
Rises 10:18:16 0° 314° (NW) 3,069 ? 55.3°
Reaches altitude 10° 10:20:53 10° 301° (WNW) 2,200 ? 55.6°
Maximum altitude 10:24:52 24° 248° (WSW) 1,509 ? 56.1°
Drops below altitude 10° 10:29:08 10° 195° (SSW) 2,344 ? 56.5°
Sets 10:32:01 0° 182° (S) 3,319 ? 56.8°
